Location: Newark
(48.5156°N, 1.8989°W)
Time: 00:16:49
(UTC+00:00)

Tiros 1 despin weight - All Passes

Search period start: 12 November 2019 00:00
Search period end: 22 November 2019 00:00
Orbit: 594 x 642 km, 48.2° (Epoch: 11 November)

Date Brightness Start Highest point End Pass type
(mag) Time Alt. Az. Time Alt. Az. Time Alt. Az.
12 Nov - 15:43:06 10° SSW 15:46:50 27° SE 15:50:38 10° E daylight
12 Nov - 17:23:31 10° WSW 17:27:58 70° SSE 17:32:30 10° E visible
12 Nov - 19:05:00 10° W 19:09:31 86° S 19:14:07 10° E visible
12 Nov - 20:46:34 10° W 20:50:56 48° SSW 20:55:22 10° SE visible
12 Nov - 22:29:10 10° WSW 22:31:46 15° SW 22:34:22 10° S night (unlit)
13 Nov - 14:20:58 10° SSE 14:22:30 12° SE 14:24:04 10° ESE daylight
13 Nov - 15:59:00 10° SW 16:03:11 41° SSE 16:07:26 10° E daylight
13 Nov - 17:40:02 10° W 17:44:32 83° S 17:49:05 10° E visible
13 Nov - 19:21:34 10° W 19:26:06 75° SSW 19:30:40 10° ESE visible
13 Nov - 21:03:16 10° W 21:07:19 32° SSW 21:11:24 10° SSE visible
14 Nov - 14:35:24 10° S 14:38:40 20° SE 14:41:57 10° E daylight
14 Nov - 16:15:15 10° WSW 16:19:38 60° SSE 16:24:04 10° E daylight
14 Nov - 17:56:37 10° W 18:01:07 88° S 18:05:41 10° E visible
14 Nov - 19:38:10 10° W 19:42:37 58° SSW 19:47:07 10° ESE visible
14 Nov - 21:20:16 10° W 21:23:36 20° SW 21:26:57 10° S visible
15 Nov - 14:50:59 10° SSW 14:54:56 32° SSE 14:58:56 10° E daylight
15 Nov - 16:31:42 10° WSW 16:36:09 77° SSE 16:40:40 10° E daylight
15 Nov - 18:13:12 10° W 18:17:43 82° S 18:22:17 10° ESE visible
15 Nov - 19:54:48 10° W 19:59:03 40° SSW 20:03:20 10° SE visible
15 Nov - 21:38:14 10° WSW 21:39:46 11° SW 21:41:17 10° SSW night (unlit)
16 Nov - 13:28:00 10° S 13:30:31 15° SE 13:33:01 10° ESE daylight
16 Nov - 15:07:02 10° SW 15:11:19 49° SSE 15:15:39 10° E daylight
16 Nov - 16:48:15 10° W 16:52:43 86° S 16:57:16 10° E daylight
16 Nov - 18:29:47 10° W 18:34:16 68° SSW 18:38:48 10° ESE visible
16 Nov - 20:11:37 10° W 20:15:23 26° SW 20:19:12 10° SSE visible
17 Nov - 13:43:07 10° SSW 13:46:43 25° SE 13:50:21 10° E daylight
17 Nov - 15:23:23 10° WSW 15:27:47 67° SSE 15:32:15 10° E daylight
17 Nov - 17:04:50 10° W 17:09:19 87° S 17:13:51 10° E visible
17 Nov - 18:46:23 10° W 18:50:45 50° SSW 18:55:10 10° SE visible
17 Nov - 20:28:51 10° WSW 20:31:37 16° SW 20:34:24 10° S visible
18 Nov - 12:21:40 10° SE 12:22:24 10° SE 12:23:08 10° SE daylight
18 Nov - 13:58:56 10° SW 14:03:02 39° SSE 14:07:11 10° E daylight
18 Nov - 15:39:54 10° WSW 15:44:20 82° S 15:48:50 10° E daylight
18 Nov - 17:21:25 10° W 17:25:54 77° S 17:30:25 10° ESE visible
18 Nov - 19:03:05 10° W 19:07:09 34° SSW 19:11:15 10° SE visible
19 Nov - 12:35:28 10° S 12:38:32 19° SE 12:41:37 10° E daylight
19 Nov - 14:15:08 10° WSW 14:19:27 56° SSE 14:23:50 10° E daylight
19 Nov - 15:56:28 10° W 16:00:55 88° S 16:05:26 10° E daylight
19 Nov - 17:38:00 10° W 17:42:25 61° SSW 17:46:53 10° ESE visible
19 Nov - 19:20:01 10° W 19:23:27 21° SW 19:26:52 10° SSE visible
20 Nov - 12:50:56 10° SSW 12:54:47 30° SSE 12:58:40 10° E daylight
20 Nov - 14:31:33 10° WSW 14:35:58 74° SSE 14:40:26 10° E daylight
20 Nov - 16:13:03 10° W 16:17:30 84° S 16:22:01 10° E daylight
20 Nov - 17:54:38 10° W 17:58:52 42° SSW 18:03:09 10° SE visible
20 Nov - 19:37:44 10° WSW 19:39:36 12° SW 19:41:30 10° SSW visible
21 Nov - 11:28:13 10° SSE 11:30:24 14° SE 11:32:34 10° ESE daylight
21 Nov - 13:06:56 10° SW 13:11:09 46° SSE 13:15:25 10° E daylight
21 Nov - 14:48:06 10° W 14:52:32 85° S 14:57:01 10° E daylight
21 Nov - 16:29:38 10° W 16:34:04 71° SSW 16:38:33 10° ESE daylight
21 Nov - 18:11:24 10° W 18:15:13 28° SSW 18:19:04 10° SSE visible
